| time (UTC) | temp C | wind direction | speed KPH | gust KPH | rain 1hr cm | rain 24hr cm | rain mn cm | humidity % | barometer mb |
| 20260507051007 | 15 | 250 | 3.2 | 12.9 | 0.00 | 0.00 | 0.00 | 70 | 1011.1 |
| 20260507045007 | 14 | 161 | 3.2 | 9.7 | 0.00 | 0.00 | 0.00 | 72 | 1011.2 |
| 20260507043006 | 14 | 204 | 4.8 | 4.8 | 0.00 | 0.00 | 0.00 | 74 | 1011.3 |
| 20260507041007 | 15 | 199 | 3.2 | 8.0 | 0.00 | 0.00 | 0.00 | 71 | 1011.3 |
| 20260507034006 | 15 | 198 | 0.0 | 4.8 | 0.00 | 0.00 | 0.00 | 69 | 1011.2 |
| 20260507033007 | 15 | 193 | 1.6 | 4.8 | 0.00 | 0.00 | 0.00 | 69 | 1011.1 |
| 20260507032006 | 16 | 213 | 1.6 | 4.8 | 0.00 | 0.00 | 0.00 | 69 | 1011.0 |
| 20260507025006 | 17 | 215 | 4.8 | 9.7 | 0.00 | 0.00 | 0.00 | 61 | 1011.3 |
| 20260507024006 | 18 | 215 | 1.6 | 8.0 | 0.00 | 0.00 | 0.00 | 59 | 1011.4 |
| 20260507021006 | 19 | 202 | 6.4 | 14.5 | 0.00 | 0.00 | 0.00 | 53 | 1011.5 |
| 20260507020005 | 19 | 217 | 3.2 | 4.8 | 0.00 | 0.00 | 0.00 | 54 | 1011.5 |
| 20260507015006 | 20 | 234 | 3.2 | 8.0 | 0.00 | 0.00 | 0.00 | 49 | 1011.4 |
| 20260507011006 | 20 | 281 | 4.8 | 11.3 | 0.00 | 0.00 | 0.00 | 47 | 1011.5 |
| 20260507004006 | 21 | 256 | 4.8 | 12.9 | 0.00 | 0.00 | 0.00 | 46 | 1011.3 |
| 20260507001006 | 22 | 229 | 3.2 | 14.5 | 0.00 | 0.00 | 0.00 | 47 | 1011.1 |
| 20260506235006 | 22 | 281 | 3.2 | 20.9 | 0.00 | 0.00 | 0.00 | 48 | 1011.1 |
| 20260506233006 | 22 | 308 | 8.0 | 14.5 | 0.00 | 0.00 | 0.00 | 46 | 1011.1 |
| 20260506232006 | 22 | 317 | 6.4 | 16.1 | 0.00 | 0.00 | 0.00 | 47 | 1011.2 |
| 20260506225006 | 22 | 265 | 9.7 | 19.3 | 0.00 | 0.00 | 0.00 | 45 | 1011.6 |
| 20260506223006 | 22 | 211 | 8.0 | 19.3 | 0.00 | 0.00 | 0.00 | 45 | 1011.8 |
| 20260506221007 | 22 | 314 | 8.0 | 25.7 | 0.00 | 0.00 | 0.00 | 46 | 1011.9 |
| 20260506220004 | 22 | 217 | 3.2 | 9.7 | 0.00 | 0.00 | 0.00 | 48 | 1012.0 |
| 20260506213006 | 22 | 237 | 14.5 | 27.4 | 0.00 | 0.00 | 0.00 | 43 | 1012.5 |
| 20260506210005 | 22 | 306 | 9.7 | 20.9 | 0.00 | 0.00 | 0.00 | 44 | 1012.5 |
| 20260506205006 | 22 | 42 | 4.8 | 33.8 | 0.00 | 0.00 | 0.00 | 50 | 1012.7 |
| 20260506200004 | 22 | 204 | 4.8 | 19.3 | 0.00 | 0.00 | 0.00 | 46 | 1012.9 |
| 20260506195006 | 21 | 336 | 4.8 | 20.9 | 0.00 | 0.00 | 0.00 | 46 | 1012.9 |
| 20260506194006 | 22 | 293 | 6.4 | 19.3 | 0.00 | 0.00 | 0.00 | 44 | 1013.0 |
| 20260506193005 | 21 | 286 | 9.7 | 19.3 | 0.00 | 0.00 | 0.00 | 44 | 1013.0 |
| 20260506192006 | 22 | 288 | 9.7 | 27.4 | 0.00 | 0.00 | 0.00 | 42 | 1012.9 |
| 20260506191006 | 22 | 272 | 4.8 | 25.7 | 0.00 | 0.00 | 0.00 | 42 | 1013.0 |
| 20260506190004 | 21 | 228 | 9.7 | 24.1 | 0.00 | 0.00 | 0.00 | 47 | 1013.0 |
| 20260506185005 | 21 | 349 | 4.8 | 24.1 | 0.00 | 0.00 | 0.00 | 46 | 1013.0 |
| 20260506183006 | 21 | 314 | 1.6 | 9.7 | 0.00 | 0.00 | 0.00 | 49 | 1013.2 |
| 20260506182006 | 21 | 19 | 6.4 | 12.9 | 0.00 | 0.00 | 0.00 | 44 | 1013.3 |
| 20260506175006 | 20 | 115 | 6.4 | 16.1 | 0.00 | 0.00 | 0.00 | 45 | 1013.6 |
| 20260506174006 | 20 | 91 | 9.7 | 16.1 | 0.00 | 0.00 | 0.00 | 44 | 1013.8 |
| 20260506173006 | 19 | 94 | 8.0 | 16.1 | 0.00 | 0.00 | 0.00 | 47 | 1013.9 |
| 20260506171007 | 18 | 84 | 8.0 | 16.1 | 0.00 | 0.00 | 0.00 | 46 | 1014.1 |
| 20260506165007 | 17 | 86 | 12.9 | 20.9 | 0.00 | 0.00 | 0.00 | 46 | 1014.1 |
| 20260506163008 | 17 | 96 | 11.3 | 22.5 | 0.00 | 0.00 | 0.00 | 47 | 1014.3 |
| 20260506162007 | 16 | 89 | 12.9 | 19.3 | 0.00 | 0.00 | 0.00 | 49 | 1014.3 |
| 20260506160005 | 15 | 126 | 11.3 | 16.1 | 0.00 | 0.00 | 0.00 | 53 | 1014.5 |
| 20260506155007 | 13 | 87 | 4.8 | 9.7 | 0.00 | 0.00 | 0.00 | 63 | 1014.7 |
| 20260506153007 | 11 | 183 | 4.8 | 4.8 | 0.00 | 0.00 | 0.00 | 68 | 1014.8 |
| 20260506152007 | 11 | 125 | 3.2 | 4.8 | 0.00 | 0.00 | 0.00 | 72 | 1015.1 |
| 20260506151008 | 10 | 127 | 4.8 | 9.7 | 0.00 | 0.00 | 0.00 | 73 | 1015.2 |
| 20260506150006 | 9 | 101 | 3.2 | 4.8 | 0.00 | 0.00 | 0.00 | 74 | 1015.1 |
| 20260506144007 | 7 | 148 | 3.2 | 4.8 | 0.00 | 0.00 | 0.00 | 82 | 1015.4 |
| 20260506143007 | 6 | 149 | 0.0 | 0.0 | 0.00 | 0.00 | 0.00 | 86 | 1015.4 |
| 20260506142007 | 6 | 156 | 0.0 | 0.0 | 0.00 | 0.00 | 0.00 | 87 | 1015.5 |
| 20260506135006 | 2 | 205 | 0.0 | 0.0 | 0.00 | 0.00 | 0.00 | 96 | 1015.6 |
| 20260506134007 | 2 | 205 | 0.0 | 0.0 | 0.00 | 0.00 | 0.00 | 96 | 1015.6 |
| 20260506133007 | 1 | 205 | 0.0 | 0.0 | 0.00 | 0.00 | 0.00 | 95 | 1015.5 |
| 20260506132007 | 0 | 205 | 0.0 | 0.0 | 0.00 | 0.00 | 0.00 | 95 | 1015.6 |
| 20260506123007 | 0 | 205 | 0.0 | 0.0 | 0.00 | 0.00 | 0.00 | 92 | 1015.2 |
| 20260506121007 | 0 | 205 | 0.0 | 0.0 | 0.00 | 0.00 | 0.00 | 91 | 1015.1 |
| 20260506115007 | 0 | 205 | 0.0 | 0.0 | 0.00 | 0.00 | 0.00 | 91 | 1015.0 |
| 20260506114007 | 0 | 205 | 0.0 | 0.0 | 0.00 | 0.00 | 0.00 | 91 | 1014.9 |
| 20260506113007 | 0 | 205 | 0.0 | 0.0 | 0.00 | 0.00 | 0.00 | 91 | 1014.9 |
| 20260506112007 | 0 | 205 | 0.0 | 0.0 | 0.00 | 0.00 | 0.00 | 91 | 1014.9 |
| 20260506105007 | 1 | 205 | 0.0 | 0.0 | 0.00 | 0.00 | 0.00 | 91 | 1014.9 |
| 20260506103007 | 1 | 205 | 0.0 | 0.0 | 0.00 | 0.00 | 0.00 | 90 | 1014.9 |
| 20260506101007 | 1 | 205 | 0.0 | 0.0 | 0.00 | 0.00 | 0.00 | 90 | 1014.9 |
| 20260506095007 | 1 | 205 | 0.0 | 0.0 | 0.00 | 0.00 | 0.00 | 90 | 1014.7 |
| 20260506094007 | 2 | 205 | 0.0 | 0.0 | 0.00 | 0.00 | 0.00 | 90 | 1014.8 |
| 20260506090004 | 2 | 205 | 0.0 | 0.0 | 0.00 | 0.00 | 0.00 | 89 | 1014.7 |
| 20260506084006 | 2 | 205 | 1.6 | 3.2 | 0.00 | 0.00 | 0.00 | 88 | 1014.5 |
| 20260506073007 | 3 | 225 | 1.6 | 3.2 | 0.00 | 0.00 | 0.00 | 87 | 1014.1 |
| 20260506072007 | 3 | 225 | 3.2 | 4.8 | 0.00 | 0.00 | 0.00 | 86 | 1014.0 |
| 20260506071006 | 3 | 225 | 1.6 | 3.2 | 0.00 | 0.00 | 0.00 | 86 | 1013.9 |